Hourly Data Report for October 02, 2017

All times are specified in Local Standard Time (LST). Add 1 hour to adjust for Daylight Saving Time where and when it is observed.

TORONTO INTL A
ONTARIO

43°40'36.000" N
79°37'50.000" W
173.40 m
6158731
71624
YYZ

Download Data

Hourly Data (October 2017)
Hourly Data Report for October 2, 2017
Temp Definition
°C
Dew Point Temp Definition
°C
Rel Hum Definition
%
Wind Dir Definition
10's deg

Wind Spd Definition
km/h
Visibility Definition
km
Stn Press Definition
kPa
Hmdx Definition


Wind Chill Definition


Weather Definition


TIME
00:00 Legend Double Dagger 10.7 7.3 79 3 7 24.1 100.60     LegendNANA
01:00 Legend Double Dagger 8.7 5.7 81 36 3 24.1 100.62     Clear
02:00 Legend Double Dagger 8.7 5.6 81   0 24.1 100.63     LegendNANA
03:00 Legend Double Dagger 8.3 5.5 82 1 7 24.1 100.62     LegendNANA
04:00 Legend Double Dagger 7.9 5.1 83 35 5 24.1 100.66     Mainly Clear
05:00 Legend Double Dagger 7.2 4.7 84 1 8 24.1 100.70     LegendNANA
06:00 Legend Double Dagger 7.5 5.4 86 1 7 24.1 100.76     LegendNANA
07:00 Legend Double Dagger 8.3 6.1 86 3 7 24.1 100.80     Mainly Clear
08:00 Legend Double Dagger 11.9 8.2 78 4 8 24.1 100.84     LegendNANA
09:00 Legend Double Dagger 15.5 9.8 68 11 15 24.1 100.85     LegendNANA
10:00 Legend Double Dagger 17.3 7.9 53 12 21 24.1 100.90     Mainly Clear
11:00 Legend Double Dagger 18.0 6.9 48 14 17 24.1 100.90     LegendNANA
12:00 Legend Double Dagger 19.1 5.8 41 14 20 24.1 100.85     LegendNANA
13:00 Legend Double Dagger 19.1 6.1 42 14 18 24.1 100.80     Mainly Clear
14:00 Legend Double Dagger 19.3 4.8 38 14 17 24.1 100.78     LegendNANA
15:00 Legend Double Dagger 19.1 6.2 43 6 13 24.1 100.77     LegendNANA
16:00 Legend Double Dagger 19.0 7.4 46 10 16 24.1 100.74     Mainly Clear
17:00 Legend Double Dagger 17.7 7.8 52 10 16 24.1 100.80     LegendNANA
18:00 Legend Double Dagger 15.7 8.5 62 9 13 24.1 100.81     LegendNANA
19:00 Legend Double Dagger 14.7 8.9 68 10 9 24.1 100.84     Mainly Clear
20:00 Legend Double Dagger 14.2 9.2 71 10 5 24.1 100.88     LegendNANA
21:00 Legend Double Dagger 13.5 8.9 73 5 5 24.1 100.89     LegendNANA
22:00 Legend Double Dagger 13.4 9.0 74 6 7 24.1 100.88     Mainly Clear
23:00 Legend Double Dagger 13.5 9.9 79 4 5 24.1 100.85     LegendNANA

Notes on Data Quality.

Legend

  • E = Estimated
  • M = Missing
  • NA = Not Available
  • ‡ = Partner data that is not subject to review by the National Climate Archives
Date modified: